Regional Weather Roundup
Issued by NWS

Home | Current Version | Previous Version | Text Only | Print | Product List | Glossary On
Versions: 1 2 3 4 5 6 7 8 9 10 11 12 13 14 15 16 17 18 19 20 21 22 23 24 25 26 27 28 29 30 31 32 33 34 35 36 37 38 39 40 41 42 43 44 45 46 47 48 49 50
000
ASUS44 KMEG 010810
RWRTN
TENNESSEE HOURLY STATE WEATHER ROUNDUP
NATIONAL WEATHER SERVICE MEMPHIS TN
300 AM CDT SUN MAY 01 2016

TNZ002-004-019-021-049-052-054-088>092-010900-
WEST TENNESSEE

CITY           SKY/WX    TMP DP  RH WIND       PRES   REMARKS
MEMPHIS INTL   CLEAR     66  62  87 S5        29.85S
NWS MEMPHIS      N/A     64 N/A N/A MISG        N/A
JACKSON        FOG       62  61  96 CALM      29.87R VSB 3/4
DYERSBURG      MOCLDY    64  63  94 SE3         N/A
UNION CITY     PTCLDY    61  61 100 CALM      29.87R
LEXINGTON      CLEAR     64  64 100 S6        29.88R
$$

TNZ008-025-027-028-033-062-065-066-010900-
NORTH MIDDLE TENNESSEE

CITY           SKY/WX    TMP DP  RH WIND       PRES   REMARKS
NASHVILLE      CLEAR     64  62  93 S5        29.90S FOG
CLARKSVILLE    FOG       62  61  96 CALM      29.88S VSB 1/4
SMYRNA         CLEAR     64  64 100 S5        29.92R
COOKEVILLE     MOCLDY    64  64 100 CALM      29.92R
CROSSVILLE     CLOUDY    70  62  76 S6        29.97S
$$

TNZ061-075-076-078-094-096-097-010900-
SOUTH MIDDLE TENNESSEE

CITY           SKY/WX    TMP DP  RH WIND       PRES   REMARKS
FAYETTEVILLE   CLOUDY    68  66  94 S8        29.93S
TULLAHOMA      CLEAR     64  64 100 S6        29.94S
WINCHESTER     PTCLDY    64  63  94 SE5       29.95S
MCMINNVILLE    MOCLDY    66  66 100 SW3       29.93S
COLUMBIA       CLEAR    N/A N/A N/A S8        29.89S
SHELBYVILLE    PTCLDY    66  66 100 S5        29.93S
$$

TNZ017-018-042-046-047-010900-
NORTHEAST TENNESSEE

CITY           SKY/WX    TMP DP  RH WIND       PRES   REMARKS
TRI CITIES     MOCLDY    61  58  90 CALM      29.98F
$$

TNZ012-013-036-069-073-074-010900-
CENTRAL EAST TENNESSEE

CITY           SKY/WX    TMP DP  RH WIND       PRES   REMARKS
KNOXVILLE      LGT RAIN  63  62  97 CALM      29.95R FOG
OAK RIDGE      CLOUDY    63  62  97 CALM      29.96F
GATLINBURG     CLOUDY    63  61  94 CALM      29.94R VSB 1/2
$$

TNZ083-085-099-010900-
SOUTHEAST TENNESSEE

CITY           SKY/WX    TMP DP  RH WIND       PRES   REMARKS
CHATTANOOGA    MOCLDY    66  63  90 CALM      29.95S
$$

SKY/WX REPORTED AS FAIR MEANS FEW OR NO CLOUDS BELOW
12 THOUSAND FEET.





USA.gov is the U.S. government's official web portal to all federal, state and local government web resources and services.